Location: Houston
(29.7630°N, 95.3630°W)
Time: 17:41:16
(UTC-05:00)

ISS - All Passes

Search period start: 25 May 2016 00:00
Search period end: 04 June 2016 00:00
Orbit: 402 x 404 km, 51.6° (Epoch: 25 May)

Date Brightness Start Highest point End Pass type
(mag) Time Alt. Az. Time Alt. Az. Time Alt. Az.
25 May - 06:18:52 10° NNW 06:21:59 43° NE 06:25:06 10° ESE daylight
25 May - 07:57:40 10° WSW 07:58:04 10° SW 07:58:29 10° SW daylight
25 May - 21:18:09 10° S 21:20:48 23° SE 21:23:27 10° ENE visible
25 May - 22:54:37 10° W 22:57:10 21° NW 22:59:44 10° NNE visible
26 May - 05:26:35 10° NNW 05:29:08 21° NE 05:31:42 10° E visible
26 May - 07:02:52 10° WNW 07:05:31 23° SW 07:08:09 10° S daylight
26 May - 20:27:46 10° SE 20:28:14 10° SE 20:28:43 10° ESE daylight
26 May - 22:01:12 10° WSW 22:04:19 43° NW 22:07:27 10° NNE visible
27 May - 04:35:01 10° NNE 04:36:12 12° NE 04:37:23 10° NE visible
27 May - 06:09:41 10° NW 06:12:53 56° SW 06:16:03 10° SSE daylight
27 May - 21:08:20 10° SW 21:11:35 76° SE 21:14:50 10° NE visible
28 May - 05:16:57 10° NW 05:20:09 56° NE 05:23:21 10° SE visible
28 May - 20:16:01 10° SSW 20:18:54 29° SE 20:21:48 10° ENE daylight
28 May - 21:53:05 10° W 21:55:21 17° NW 21:57:39 10° N visible
29 May - 04:24:33 10° NNW 04:27:20 25° NE 04:30:06 10° E visible
29 May - 06:01:17 10° W 06:03:36 18° SW 06:05:55 10° S daylight
29 May - 19:24:40 10° SSE 19:26:18 13° SE 19:27:56 10° E daylight
29 May - 20:59:28 10° WSW 21:02:28 34° NW 21:05:29 10° NNE visible
30 May - 03:32:38 10° N 03:34:24 14° NE 03:36:09 10° ENE visible
30 May - 05:07:52 10° WNW 05:10:59 42° SW 05:14:04 10° SSE visible
30 May - 20:06:26 10° SW 20:09:40 82° NW 20:12:56 10° NE daylight
31 May - 04:15:01 10° NW 04:18:16 74° NE 04:21:30 10° SE night (unlit)
31 May - 19:13:55 10° SSW 19:16:58 38° SE 19:20:01 10° ENE daylight
31 May - 20:51:35 10° WNW 20:53:31 15° NW 20:55:26 10° N visible
01 Jun - 03:22:29 10° NNW 03:25:27 31° NE 03:28:23 10° ESE night (unlit)
01 Jun - 04:59:48 10° W 05:01:39 14° SW 05:03:29 10° SSW night (unlit)
01 Jun - 18:22:09 10° SSE 18:24:20 17° SE 18:26:30 10° E daylight
01 Jun - 19:57:43 10° WSW 20:00:35 27° NW 20:03:26 10° NNE daylight
02 Jun - 02:30:22 10° N 02:32:32 16° NE 02:34:40 10° ENE night (unlit)
02 Jun - 04:06:04 10° WNW 04:09:01 32° SW 04:11:57 10° SSE night (unlit)
02 Jun - 19:04:31 10° SW 19:07:44 62° NW 19:10:58 10° NE daylight
03 Jun - 03:13:04 10° NW 03:16:19 84° SW 03:19:33 10° SE night (unlit)
03 Jun - 18:11:49 10° SSW 18:14:59 50° SE 18:18:09 10° NE daylight
03 Jun - 19:50:11 10° WNW 19:51:37 12° NW 19:53:04 10° N daylight
